TRA76U EHAM-LGAV

Flight info

Callsign TRA76U
Flight time N/A
Altitude 35000
Route EDUPO Z739 MISGO DCT DOJOH DCT DODEN DCT NEGIX DCT DINKU M867 XERUM DCT BAVAX DCT RADIZ DCT LUMUS DCT GORPA DCT ELTIB DCT PINDO DCT PIKOS UL607 XORKI
Aircraft A20N/M-A20N/LB1

Departure

Time 2026-04-30 14:11
Airport Amsterdam Airport Schiphol (EHAM)

Arrival

Time N/A
Airport Athens Eleftherios Venizelos International Airport (LGAV)
Time Latitude Longitude Altitude Speed Heading
2026-04-30 13:43 52.30574 4.76694 -1 ft 0 kts 215°
2026-04-30 13:57 52.30579 4.76700 -1 ft 2 kts 219°
2026-04-30 13:58 52.30589 4.76718 -1 ft 2 kts 232°
2026-04-30 13:58 52.30603 4.76761 -1 ft 2 kts 254°
2026-04-30 13:58 52.30606 4.76785 -1 ft 2 kts 265°
2026-04-30 13:59 52.30606 4.76809 -1 ft 2 kts 276°
2026-04-30 13:59 52.30604 4.76833 -1 ft 2 kts 287°
2026-04-30 13:59 52.30598 4.76855 -1 ft 2 kts 298°
2026-04-30 13:59 52.30590 4.76876 -1 ft 2 kts 309°
2026-04-30 14:00 52.30579 4.76894 -1 ft 2 kts 321°
2026-04-30 14:00 52.30568 4.76907 -1 ft 0 kts 332°
2026-04-30 14:02 52.30590 4.76885 -1 ft 8 kts 331°
2026-04-30 14:03 52.30657 4.76919 -1 ft 12 kts 82°
2026-04-30 14:03 52.30653 4.77072 -1 ft 14 kts 95°
2026-04-30 14:03 52.30645 4.77232 -1 ft 14 kts 94°
2026-04-30 14:03 52.30640 4.77391 -1 ft 13 kts 91°
2026-04-30 14:04 52.30649 4.77548 -1 ft 13 kts 64°
2026-04-30 14:04 52.30732 4.77596 -1 ft 13 kts
2026-04-30 14:04 52.30834 4.77606 -1 ft 15 kts
2026-04-30 14:04 52.30940 4.77617 -1 ft 15 kts
2026-04-30 14:05 52.31045 4.77627 -1 ft 14 kts
2026-04-30 14:05 52.31151 4.77635 -1 ft 16 kts
2026-04-30 14:05 52.31288 4.77648 -1 ft 22 kts
2026-04-30 14:05 52.31440 4.77647 -1 ft 21 kts 343°
2026-04-30 14:06 52.31551 4.77492 -1 ft 20 kts 308°
2026-04-30 14:06 52.31567 4.77049 -1 ft 19 kts 269°
2026-04-30 14:07 52.31551 4.76609 -1 ft 18 kts 268°
2026-04-30 14:07 52.31544 4.76398 -1 ft 18 kts 266°
2026-04-30 14:07 52.31537 4.76187 -1 ft 18 kts 268°
2026-04-30 14:08 52.31522 4.75771 -1 ft 18 kts 268°
2026-04-30 14:08 52.31516 4.75569 -1 ft 17 kts 267°
2026-04-30 14:08 52.31501 4.75166 -1 ft 17 kts 268°
2026-04-30 14:09 52.31495 4.74966 -1 ft 17 kts 267°
2026-04-30 14:09 52.31489 4.74768 -1 ft 16 kts 267°
2026-04-30 14:09 52.31650 4.74698 -1 ft 15 kts 49°
2026-04-30 14:10 52.31672 4.74894 -1 ft 27 kts 86°
2026-04-30 14:10 52.31696 4.75595 0 ft 93 kts 86°
2026-04-30 14:10 52.31742 4.76958 0 ft 146 kts 85°
2026-04-30 14:10 52.31801 4.78796 230 ft 170 kts 88°
2026-04-30 14:11 52.31874 4.80719 779 ft 175 kts 90°
2026-04-30 14:11 52.31947 4.82776 1236 ft 191 kts 89°
2026-04-30 14:11 52.32025 4.85073 1655 ft 210 kts 92°
2026-04-30 14:11 52.31823 4.87467 2153 ft 223 kts 107°
2026-04-30 14:12 52.31254 4.89866 2759 ft 233 kts 113°
2026-04-30 14:12 52.30616 4.92283 3545 ft 235 kts 114°
2026-04-30 14:12 52.29968 4.94729 4316 ft 237 kts 112°
2026-04-30 14:12 52.29580 4.96397 4812 ft 239 kts 109°
2026-04-30 14:13 52.28948 4.99836 5820 ft 243 kts 107°
2026-04-30 14:13 52.28484 5.02489 6576 ft 245 kts 107°
2026-04-30 14:13 52.28017 5.05152 7309 ft 248 kts 107°
2026-04-30 14:13 52.27539 5.07876 8015 ft 252 kts 106°
2026-04-30 14:14 52.27054 5.10640 8731 ft 256 kts 106°
2026-04-30 14:14 52.26570 5.13403 9437 ft 259 kts 105°
2026-04-30 14:14 52.26065 5.16287 9896 ft 271 kts 105°
2026-04-30 14:14 52.25459 5.19264 10187 ft 289 kts 116°
2026-04-30 14:15 52.24313 5.22100 10498 ft 306 kts 125°
2026-04-30 14:15 52.22980 5.24882 10815 ft 321 kts 126°
2026-04-30 14:15 52.21585 5.27792 11341 ft 328 kts 126°
2026-04-30 14:15 52.20206 5.30716 11971 ft 331 kts 125°
2026-04-30 14:16 52.18816 5.33710 12557 ft 335 kts 125°
2026-04-30 14:16 52.17411 5.36758 13145 ft 339 kts 124°
2026-04-30 14:16 52.16002 5.39835 13720 ft 342 kts 124°
2026-04-30 14:16 52.14571 5.42965 14287 ft 346 kts 124°
2026-04-30 14:17 52.13144 5.46092 14851 ft 349 kts 124°
2026-04-30 14:17 52.11702 5.49252 15415 ft 352 kts 124°
2026-04-30 14:17 52.10230 5.52475 15984 ft 355 kts 124°
2026-04-30 14:17 52.08775 5.55657 16532 ft 357 kts 124°
2026-04-30 14:18 52.07288 5.58910 17061 ft 360 kts 124°
2026-04-30 14:18 52.05798 5.62165 17560 ft 363 kts 124°
2026-04-30 14:18 52.02764 5.68783 18548 ft 369 kts 124°
2026-04-30 14:19 51.99687 5.75475 19476 ft 375 kts 124°
2026-04-30 14:19 51.98122 5.78872 19948 ft 378 kts 125°
2026-04-30 14:19 51.96559 5.82264 20387 ft 382 kts 125°
2026-04-30 14:20 51.94960 5.85725 20842 ft 385 kts 125°
2026-04-30 14:20 51.93357 5.89186 21297 ft 387 kts 125°
2026-04-30 14:20 51.90113 5.96181 22171 ft 394 kts 124°
2026-04-30 14:21 51.88455 5.99751 22599 ft 397 kts 124°
2026-04-30 14:21 51.86800 6.03312 23007 ft 400 kts 124°
2026-04-30 14:21 51.83217 6.10258 23830 ft 407 kts 129°
2026-04-30 14:22 51.81344 6.13691 24230 ft 409 kts 129°
2026-04-30 14:22 51.77562 6.20615 25022 ft 414 kts 129°
2026-04-30 14:22 51.75668 6.24080 25391 ft 417 kts 129°
2026-04-30 14:23 51.71833 6.31078 26120 ft 421 kts 129°
2026-04-30 14:23 51.67941 6.38156 26798 ft 426 kts 129°
2026-04-30 14:24 51.63987 6.45323 27449 ft 431 kts 129°
2026-04-30 14:24 51.61994 6.48931 27763 ft 433 kts 128°
2026-04-30 14:25 51.58003 6.56148 28361 ft 436 kts 128°
2026-04-30 14:25 51.53963 6.63431 28862 ft 440 kts 128°
2026-04-30 14:26 51.49867 6.70790 29342 ft 444 kts 129°
2026-04-30 14:26 51.47809 6.74477 29557 ft 445 kts 129°
2026-04-30 14:26 51.43682 6.81855 29979 ft 447 kts 129°
2026-04-30 14:27 51.41606 6.85557 30171 ft 449 kts 129°
2026-04-30 14:27 51.39457 6.89156 30351 ft 451 kts 132°
2026-04-30 14:27 51.37221 6.92634 30509 ft 452 kts 133°
2026-04-30 14:28 51.32706 6.99655 30791 ft 455 kts 133°
2026-04-30 14:28 51.30433 7.03180 30922 ft 456 kts 133°
2026-04-30 14:28 51.28170 7.06682 31049 ft 457 kts 133°
2026-04-30 14:28 51.25908 7.10179 31181 ft 458 kts 132°
2026-04-30 14:29 51.21336 7.17231 31408 ft 459 kts 132°
2026-04-30 14:29 51.17511 7.23113 31598 ft 460 kts 132°
2026-04-30 14:30 51.09852 7.34852 31906 ft 462 kts 132°
2026-04-30 14:31 51.05200 7.41950 32057 ft 463 kts 132°
2026-04-30 14:31 51.00576 7.48987 32199 ft 464 kts 132°
2026-04-30 14:31 50.98245 7.52526 32273 ft 465 kts 132°
2026-04-30 14:32 50.93588 7.59581 32407 ft 465 kts 132°
2026-04-30 14:32 50.91272 7.63083 32487 ft 465 kts 132°
2026-04-30 14:33 50.86559 7.70189 32621 ft 466 kts 133°
2026-04-30 14:33 50.81910 7.77174 32784 ft 465 kts 133°
2026-04-30 14:33 50.79553 7.80692 32854 ft 465 kts 133°
2026-04-30 14:34 50.74818 7.87737 33028 ft 465 kts 133°
2026-04-30 14:34 50.70134 7.94686 33167 ft 465 kts 133°
2026-04-30 14:35 50.66225 8.00471 33326 ft 464 kts 133°
2026-04-30 14:35 50.63112 8.05067 33871 ft 454 kts 132°
2026-04-30 14:35 50.60886 8.08561 34166 ft 448 kts 129°
2026-04-30 14:36 50.58807 8.12184 34306 ft 446 kts 126°
2026-04-30 14:36 50.54934 8.19745 34458 ft 446 kts 124°
2026-04-30 14:37 50.51040 8.27398 34662 ft 446 kts 124°
2026-04-30 14:37 50.49103 8.31193 34770 ft 446 kts 124°
2026-04-30 14:37 50.47157 8.35001 34864 ft 446 kts 124°
2026-04-30 14:38 50.43299 8.42532 35028 ft 446 kts 124°
2026-04-30 14:38 50.39418 8.50086 35166 ft 446 kts 124°
2026-04-30 14:39 50.35305 8.57411 35269 ft 450 kts 128°
2026-04-30 14:39 50.31063 8.64524 35325 ft 450 kts 128°
2026-04-30 14:40 50.24655 8.75233 35337 ft 451 kts 129°
2026-04-30 14:40 50.20226 8.82231 35331 ft 454 kts 132°
2026-04-30 14:41 50.15609 8.88879 35330 ft 454 kts 133°
2026-04-30 14:41 50.10960 8.95564 35325 ft 456 kts 133°
2026-04-30 14:42 50.06302 9.02282 35325 ft 456 kts 132°
2026-04-30 14:42 50.01680 9.08944 35331 ft 456 kts 132°
2026-04-30 14:43 49.97007 9.15665 35336 ft 456 kts 132°
2026-04-30 14:43 49.92369 9.22319 35335 ft 456 kts 132°
2026-04-30 14:44 49.87718 9.28979 35338 ft 456 kts 132°
2026-04-30 14:44 49.83071 9.35614 35341 ft 457 kts 132°
2026-04-30 14:45 49.78366 9.42314 35345 ft 458 kts 132°
2026-04-30 14:45 49.73691 9.48949 35343 ft 457 kts 131°
2026-04-30 14:46 49.69012 9.55575 35337 ft 457 kts 131°
2026-04-30 14:46 49.65110 9.61086 35334 ft 458 kts 131°
2026-04-30 14:47 49.59631 9.68806 35328 ft 459 kts 132°
2026-04-30 14:47 49.54926 9.75415 35324 ft 460 kts 132°
2026-04-30 14:48 49.50197 9.82038 35328 ft 460 kts 132°
2026-04-30 14:48 49.45447 9.88671 35330 ft 460 kts 132°
2026-04-30 14:49 49.40723 9.95247 35333 ft 460 kts 131°
2026-04-30 14:49 49.35976 10.01843 35330 ft 461 kts 131°
2026-04-30 14:50 49.28886 10.11662 35322 ft 461 kts 131°
2026-04-30 14:51 49.21726 10.21537 35322 ft 462 kts 131°
2026-04-30 14:52 49.14584 10.31338 35308 ft 461 kts 131°
2026-04-30 14:52 49.07429 10.41125 35298 ft 462 kts 131°
2026-04-30 14:53 49.00258 10.50895 35295 ft 463 kts 131°
2026-04-30 14:54 48.90634 10.63940 35297 ft 464 kts 131°
2026-04-30 14:55 48.83409 10.73690 35296 ft 464 kts 131°
2026-04-30 14:56 48.74582 10.87753 35306 ft 459 kts 125°
2026-04-30 14:57 48.68180 10.98471 35317 ft 459 kts 125°
2026-04-30 14:58 48.59656 11.12675 35322 ft 459 kts 125°
2026-04-30 14:58 48.54143 11.21817 35329 ft 459 kts 125°
2026-04-30 15:00 48.43517 11.39349 35321 ft 453 kts 124°
2026-04-30 15:01 48.35038 11.53262 35309 ft 453 kts 124°
2026-04-30 15:01 48.28658 11.63674 35311 ft 452 kts 124°
2026-04-30 15:02 48.24245 11.70364 35311 ft 458 kts 130°
2026-04-30 15:03 48.12544 11.86436 35291 ft 457 kts 130°
2026-04-30 15:04 48.00819 12.02439 35288 ft 458 kts 130°
2026-04-30 15:06 47.89027 12.18433 35253 ft 459 kts 130°
2026-04-30 15:07 47.79568 12.31188 35249 ft 461 kts 130°
2026-04-30 15:08 47.70044 12.43962 35265 ft 464 kts 130°
2026-04-30 15:09 47.58499 12.60490 35235 ft 461 kts 125°
2026-04-30 15:10 47.49749 12.74517 35296 ft 464 kts 126°
2026-04-30 15:11 47.36602 12.95435 35259 ft 467 kts 126°
2026-04-30 15:13 47.25548 13.12897 35243 ft 469 kts 127°
2026-04-30 15:14 47.09932 13.37367 35184 ft 470 kts 127°
2026-04-30 15:17 46.89720 13.68709 35199 ft 473 kts 128°
2026-04-30 15:19 46.71646 13.96425 35249 ft 473 kts 129°